Location: Danga
(33.9500°S, 18.5167°E)
Time: 16:53:12
(UTC+00:00)

Daily predictions for brighter satellites

Satellite Brightness Start Highest point End
(mag) Time Altitude Azimuth Time Altitude Azimuth Time Altitude Azimuth
Ariane Rocket 3.7 18:17:00 10° SSE 18:21:38 34° E 18:26:12 10° NNE
Cosmos 2278 Rocket 2.3 18:16:49 10° SSW 18:22:30 63° ESE 18:28:07 10° NNE
Cosmos 1356 Rocket 4.0 18:19:08 10° NNW 18:23:24 68° W 18:27:45 10° S
BREEZE-M DEB (TANK) 3.5 18:22:17 10° WNW 18:24:44 36° SW 18:26:55 10° SE
Cosmos 1331 Rocket 4.3 18:20:29 10° SSW 18:25:42 73° WNW 18:30:53 10° N
Cosmos 2221 2.5 18:21:45 10° N 18:26:08 81° E 18:30:36 10° S
Cosmos 2237 Rocket 3.0 18:22:07 10° NW 18:27:40 58° WSW 18:33:20 10° SSE
GPS 2-04 Rocket1 2.6 18:25:24 10° WNW 18:29:27 72° NNE 18:33:20 10° E
Cosmos 1302 Rocket 4.1 18:26:55 10° S 18:32:14 64° ESE 18:37:29 10° NNE
Cosmos 304 Rocket 3.8 18:27:59 10° SSW 18:32:51 88° ESE 18:37:38 10° NNE
CZ-2C R/B 4.3 18:29:57 10° SE 18:33:28 19° E 18:37:01 10° NE
GENESIS II 4.4 18:30:01 10° SSW 18:33:47 55° ESE 18:37:31 10° NE
Cosmos 2061 Rocket 4.5 18:28:38 10° S 18:34:36 42° E 18:40:32 10° NNE
Aureole 1 Rocket 4.5 18:37:15 10° NNE 18:42:35 29° ENE 18:46:55 10° SE
Cosmos 1869 3.2 18:40:50 10° N 18:44:44 75° E 18:48:42 10° S
CZ-4 R/B 4.1 18:43:03 10° SSW 18:46:12 23° WSW 18:49:20 10° NW
ATLAS 5 CENTAUR R/B 3.8 18:42:40 10° NW 18:48:33 37° NNE 19:09:37 11° ENE
SJ-6B 3.6 18:47:03 10° SSE 18:50:53 34° E 18:54:36 10° NNE
SL-16 R/B 2.2 18:48:13 10° NNW 18:53:52 82° ENE 18:59:35 10° SSE
Cosmos 1943 Rocket 4.2 18:52:50 10° SSE 18:55:04 12° SE 18:57:17 10° ESE
STARLINK-43 3.3 18:52:05 10° SW 18:55:53 84° NW 18:58:27 19° NE
CZ-2C R/B 3.3 18:51:12 10° N 18:56:39 59° W 19:02:03 10° SSW
Iridium 51 4.1 18:54:16 10° N 18:57:45 62° E 19:01:29 10° S
H-2A R/B 0.7 18:56:46 10° WNW 19:01:30 54° N 19:02:21 31° ENE
MOS 1 Rocket 3.3 18:57:29 10° N 19:01:46 73° W 19:06:15 10° SSW
Cosmos 1459 Rocket 4.3 18:59:45 10° S 19:06:11 72° W 19:12:27 10° N
H-2A R/B 1.9 19:07:18 10° SSE 19:12:17 66° E 19:17:10 10° N
SL-08 RB Rocket 4.0 19:13:29 10° SSE 19:18:03 48° E 19:21:00 20° NNE
Cosmos 1805 Rocket 3.5 19:14:06 10° S 19:18:37 84° E 19:21:45 19° N
NOSS 3-1 (C) 4.1 19:13:34 10° SSW 19:19:16 37° SE 19:22:00 23° E
Cosmos 2016 Rocket 4.1 19:12:53 10° S 19:19:19 84° W 19:25:37 10° N
ATLAS 3B CENTAUR R/B 2.7 19:18:06 10° NW 19:21:51 36° NNE 19:25:22 23° ENE
Cosmos 1633 2.4 19:18:27 10° S 19:22:07 86° E 19:23:50 29° N
USA 186 2.6 19:19:09 10° S 19:22:20 50° WSW 19:25:19 10° NNW
Cosmos 614 Rocket 4.2 19:17:45 12° N 19:22:28 49° ENE 19:27:30 10° SSE
CZ-4C R/B 4.4 19:17:01 10° WNW 19:24:38 40° SW 19:31:25 10° SSE
MOS 1 4.4 19:20:47 10° SSE 19:26:34 84° WSW 19:32:17 10° NNW
USA 142 4.1 19:25:35 10° W 19:29:23 33° NNW 19:29:52 31° N
STARLINK-26 4.2 19:31:41 10° SSW 19:34:56 33° SE 19:35:28 31° ESE
Cosmos 1943 3.8 19:35:45 33° NE 19:36:46 36° ENE 19:41:57 10° SE
ATLAS CENTAUR R/B 3.1 19:40:31 16° SE 19:40:31 16° SE 19:41:28 10° SE
Centaur AC-119 3.7 19:24:11 10° WNW 19:38:26 47° N 19:40:06 35° NE
Resurs 01 Rocket 2.1 19:35:21 10° SSE 19:39:34 40° E 19:39:37 40° E
EO 1 Del DPAF 3.9 19:40:30 37° ESE 19:40:30 37° ESE 19:44:03 10° S
Cosmos 1151 Rocket 3.0 19:39:11 41° NNE 19:40:32 64° E 19:44:57 10° SSE
Cosmos 2369 Rocket 3.5 19:36:18 10° S 19:40:43 23° ESE 19:42:01 21° E
SPOT 3 Rocket 3.4 19:36:41 10° SSE 19:41:57 83° ENE 19:45:54 18° N
Lacrosse 5 rocket 2.6 19:38:43 10° WSW 19:42:15 32° WNW 19:43:35 26° NNW
Cosmos 2233 Rocket 3.9 19:42:29 10° S 19:48:52 84° E 19:52:07 31° N
Hubble Space Telescope 1.6 19:45:04 10° WNW 19:48:19 36° NNW 19:48:19 36° NNW
Cosmos 1140 Rocket 3.5 19:48:01 44° NNE 19:49:14 54° ENE 19:54:18 10° SSE
Cosmos 1933 3.7 19:52:17 49° ESE 19:52:17 49° ESE 19:55:49 10° SSE
USA 229 DEB 3.6 19:46:35 10° SSW 19:53:24 72° ESE 19:55:48 41° NE
USA 229 3.6 19:46:41 10° SSW 19:53:30 72° ESE 19:55:54 41° NE
Geosat 3.9 19:52:41 44° NNE 19:54:19 86° WNW 19:59:25 10° SSW
Cosmos 1992 Rocket 4.5 19:49:25 10° SSW 19:54:34 57° WNW 19:56:58 30° NNW
Cosmos 1238 Rocket 4.3 19:54:01 10° SW 19:56:25 21° W 19:57:20 19° WNW
STARLINK-80 4.0 19:52:49 10° WSW 19:56:33 46° NW 19:56:40 46° NW
Cosmos 1400 Rocket 3.3 19:55:23 32° NNW 19:57:10 63° W 20:01:19 10° S
IUS-1 SRM-2 4.0 19:38:20 10° WNW 19:58:01 47° NNW 19:59:29 40° NNE
Lacrosse 4 Rocket 1.7 19:54:49 10° SSW 19:58:41 50° SE 19:58:41 50° SE
NOSS 3-1 (A) 3.7 19:55:30 10° SSW 20:01:26 47° SE 20:02:36 41° E
ARGOS 4.1 19:57:32 10° S 20:02:43 47° WSW 20:07:50 10° NW
Cosmos 1515 Rocket 3.4 20:03:53 73° E 20:03:53 73° E 20:08:13 10° S
Cosmos 1346 Rocket 4.5 20:02:14 10° SSE 20:04:25 23° SE 20:04:25 23° SE
SL-24 DEB 4.1 20:02:04 10° S 20:06:52 76° E 20:07:11 71° NE
USA 234 4.5 20:01:07 10° ESE 20:03:56 23° E 20:03:56 23° E
GPS 2-04 Rocket1 3.0 20:05:09 10° W 20:08:42 61° SW 20:08:42 61° SW
Cosmos 1606 3.2 20:10:00 53° S 20:10:00 53° S 20:13:01 10° S
Mayak -0.7 20:10:48 49° SE 20:10:48 49° SE 20:14:27 10° S
Cosmos 1666 Rocket 4.4 20:07:37 10° SSW 20:11:48 45° W 20:12:51 37° NW
Cosmos 1328 Rocket 4.4 20:10:41 31° NW 20:12:22 49° W 20:16:40 10° S
Cosmos 1933 Rocket 4.3 20:08:11 10° S 20:11:44 43° SE 20:11:44 43° SE
CZ-2C R/B 4.4 20:08:57 10° S 20:13:23 36° WSW 20:17:54 10° NW
Cosmos 1954 Rocket 4.0 20:13:57 62° E 20:13:57 62° E 20:18:53 10° SSE
Meteor 1-26 Rocket 4.4 20:13:26 56° ENE 20:14:01 59° E 20:19:54 10° SSE
Cosmos 1464 Rocket 4.2 20:09:56 10° S 20:15:58 50° E 20:16:26 49° E
Cosmos 921 Rocket 3.7 20:16:03 10° S 20:19:18 45° SSE 20:19:18 45° SSE
Spot 2 Rocket 3.9 20:16:03 10° SSE 20:20:12 48° ESE 20:20:12 48° ESE
MetOp-B 4.2 20:16:34 10° SSE 20:21:31 59° E 20:21:31 59° E
Thor Agena Rocket 3.8 20:24:52 55° NW 20:25:39 63° WNW 20:30:47 10° SSW
Cosmos 1633 Rocket 4.3 20:26:02 10° SSW 20:30:07 35° W 20:30:50 32° WNW
NOSS 2-3 (C) 4.2 20:25:13 10° SSW 20:31:36 62° SE 20:31:43 62° ESE
USA 245 4.4 20:27:57 10° SSE 20:34:18 67° E 20:34:19 67° ENE
Cosmos 1943 Rocket 2.1 20:33:47 10° SSW 20:39:31 86° WNW 20:39:32 86° WNW
Cosmos 676 Rocket 4.2 20:39:31 63° WNW 20:40:00 67° WSW 20:45:16 10° S
Cosmos 2263 4.5 20:40:47 10° SSW 20:45:55 58° SE 20:45:55 58° SE
ERS-1 Rocket 4.4 20:44:27 10° SSE 20:47:03 28° SE 20:47:03 28° SE
Nimbus 7 Rocket 4.4 20:50:37 73° SE 20:50:37 73° SE 20:56:16 10° S
Cosmos 1816 Rocket 4.5 20:59:46 80° SE 20:59:46 80° SE 21:05:55 10° S
Cosmos 2228 Rocket 4.5 21:02:06 37° WSW 21:02:06 37° WSW 21:05:50 10° S
Resurs 01 Rocket 4.2 21:12:59 10° SSW 21:15:40 16° WSW 21:17:11 14° W
ATLAS CENTAUR R/B 4.1 21:16:34 13° WSW 21:17:05 14° SW 21:19:04 10° SSW
Cosmos 2369 Rocket 3.3 21:19:35 10° SW 21:23:48 38° WSW 21:23:48 38° WSW
ATLAS 3B CENTAUR R/B 4.3 21:39:54 10° WNW 22:00:17 15° ENE 22:02:55 10° ENE
USA 234 3.7 21:43:38 10° SE 21:50:05 57° SW 21:51:11 51° WSW
Terra 3.7 21:46:30 10° S 21:48:44 27° S 21:48:44 27° S
Lacrosse 5 4.1 21:59:02 10° S 22:02:05 20° SSE 22:02:05 20° SSE
ATLAS 2AS CENTAUR R/B 4.4 22:20:37 10° S 22:25:44 23° SE 22:27:08 21° ESE
CZ-2D R/B 4.1 22:56:29 24° SSE 22:56:29 24° SSE 22:59:11 10° S
Cosmos 1833 Rocket 4.4 23:04:00 28° SSE 23:04:00 28° SSE 23:06:33 10° SSE
Resurs 1-4 Rocket 3.9 23:13:22 29° SSE 23:13:22 29° SSE 23:16:11 10° S
Cosmos 2344 4.2 23:19:22 10° SSW 23:32:06 73° WNW 23:32:06 73° WNW
COSMOS 2455 4.0 23:30:58 10° SSW 23:35:01 39° S 23:35:01 39° S
ADEOS II 3.9 23:41:21 26° SE 23:41:21 26° SE 23:44:44 10° SSE
Cosmos 2082 Rocket 3.6 23:43:27 36° S 23:43:27 36° S 23:46:47 10° SSE
ATLAS 5 CENTAUR R/B 4.1 23:43:52 27° E 23:43:52 27° E 23:47:52 10° SE
NOSS 3-4 (A) 4.3 23:37:38 10° SSW 23:43:18 51° SSE 23:43:18 51° SSE
NOSS 3-4 (C) 4.3 23:37:45 10° SSW 23:43:26 51° SSE 23:43:26 51° SSE
